Starlink 35719

operational
NORAD ID: 67183 Int'l Des: 2025-303 Owner: SPXS Country: US Constellation: starlink
LEOCIRCULAR

Starlink 35719について

説明を読み込み中...

リアルタイム位置

3D地球を読み込み中...

次回通過

高度履歴

Altitude vs Time

uPlot chart will show altitude changes over time

軌道要素

1 67183C 25303W 25352.76854167 .00690960 00000+0 10125-2 0 3522
2 67183 43.0051 61.7769 0007434 284.3490 270.6765 16.03352894 19
Epoch: Dec 18, 2025 • Age: 50 hours

現在のステータス

高度 264.3 km
速度 7.75 km/s
衛星直下点 -31.15°S, 110.22°W
打ち上げ日 Dec 17, 2025
運用期間 2 days
タイプ internet

技術仕様

分類 Payload
質量 575.00 kg
乾燥質量 530.00 kg
総質量 575.00 kg
長さ 0.30 m
直径 4.10 m
スパン 29.00 m
形状 Box + pan
製造者 SPXS
バスタイプ Starlink V2MO
フェーズステータス In Orbit
所有者/国 SPXS/US

大規模コンステレーション

Loading constellations...